カタログに戻る

OPS 4682 DEB

運用中PO
NORAD 51498·DEBRIS·🇺🇸 United States

打ち上げ Apr 3, 1965 から Vandenberg Space Force Base

Loading…

次のパス (今後24時間)

TLE

経年Source: Space-Track

元期: Sep 8, 2026, 07:47 UTC

1 51498U 65027GJ  26251.32480084  .00000583  00000-0  19693-2 0  9998
2 51498  90.2550  14.5285 0026736 206.6933 153.2814 12.97828011536791

AllMySatでOPS 4682 DEBをリアルタイム追跡

Download on the App Store